Content
SEND FEEDBACK

Daily
Averages
Monthly
Summary
United Kingdom

TYNEMOUTH, ENGLAND


Home > Europe > United Kingdom > England
Elevation: 108 feet     Latitude: 55 01N     Longitude: 001 25W

WEATHER
 
SELECT A DAY
Number of Records: 291,481;   Date Range: 7/1/96 - 12/16/14
 
SHARE

PRINT THIS DATA

[ ← Previous Day ]
WEATHER ALMANAC - OCTOBER 29, 2013
[ Next Day → ]
[ °C ]   °F
Weather ElementAverageHighLow
Temperature46.2 °F50 °F (12:20 pm)42.8 °F (10:20 pm)
Dewpoint41.6 °F44.6 °F (12:50 am)41 °F (4:50 am)
Humidity84 %93 % (12:50 am)71 % (12:20 pm)
Barometer29.63 in29.86 in (10:50 pm)29.33 in (12:50 am)
Wind Speed16.5 mph24.2 mph (11:50 am)
Weather ElementAverage
Visibility6.2 mi
Wind DirectionWSW (260.2 °)

Weather ElementTotal
Precipitation---
Heating Degree Days18.6 (Base 65)
Averaged from 45 records on October 29, 2013
WEATHER CONDITIONS BREAKOUT
WIND DIRECTION BREAKOUT
WEATHER BY HOUR - OCTOBER 29, 2013
[ °C ]   °F
Local TimeTemperatureDewpointHumidityBarometerVisibilityWind DirectionWind SpeedGust SpeedPrecipitationEventsConditions
12:50 AM46.4 °F44.6 °F93 %29.33 in6.2 miWest (270°)15.0 mphRainLight Rain Showers
1:20 AM46.4 °F44.6 °F93 %29.36 in6.2 miWest (270°)15.0 mphScattered Clouds
1:50 AM46.4 °F42.8 °F87 %29.39 in6.2 miWest (260°)15.0 mphScattered Clouds
2:20 AM44.6 °F42.8 °F93 %29.39 in6.2 miWSW (250°)11.5 mphPartly Cloudy
2:50 AM44.6 °F42.8 °F93 %29.42 in6.2 miWest (260°)11.5 mphPartly Cloudy
3:50 AM44.6 °F42.8 °F93 %29.42 in6.2 miWest (260°)13.8 mphPartly Cloudy
4:50 AM44.6 °F41.0 °F87 %29.47 in6.2 miWest (260°)13.8 mphPartly Cloudy
5:20 AM44.6 °F41.0 °F87 %29.47 in6.2 miWest (260°)10.4 mphPartly Cloudy
5:50 AM44.6 °F41.0 °F87 %29.47 in6.2 miWest (260°)13.8 mphPartly Cloudy
6:20 AM44.6 °F41.0 °F87 %29.50 in6.2 miWest (260°)15.0 mphPartly Cloudy
6:50 AM44.6 °F41.0 °F87 %29.50 in6.2 miWest (270°)15.0 mphPartly Cloudy
7:20 AM44.6 °F41.0 °F87 %29.53 in6.2 miWest (260°)19.6 mphPartly Cloudy
7:50 AM44.6 °F41.0 °F87 %29.53 in6.2 miWest (260°)17.3 mphPartly Cloudy
8:20 AM44.6 °F41.0 °F87 %29.56 in6.2 miWest (260°)13.8 mphPartly Cloudy
8:50 AM46.4 °F41.0 °F81 %29.56 in6.2 miWest (260°)15.0 mphPartly Cloudy
9:20 AM46.4 °F41.0 °F81 %29.56 in6.2 miWest (260°)19.6 mphPartly Cloudy
9:50 AM46.4 °F41.0 °F81 %29.59 in6.2 miWest (260°)19.6 mphPartly Cloudy
10:20 AM48.2 °F41.0 °F76 %29.59 in6.2 miWest (260°)21.9 mphPartly Cloudy
10:50 AM48.2 °F41.0 °F76 %29.62 in6.2 miWest (260°)20.7 mphPartly Cloudy
11:20 AM48.2 °F41.0 °F76 %29.62 in6.2 miWest (260°)21.9 mphPartly Cloudy
11:50 AM48.2 °F41.0 °F76 %29.62 in6.2 miWest (260°)24.2 mphPartly Cloudy
12:20 PM50.0 °F41.0 °F71 %29.62 in6.2 miWest (260°)19.6 mphScattered Clouds
12:50 PM50.0 °F41.0 °F71 %29.65 in6.2 miWest (270°)20.7 mphScattered Clouds
1:20 PM50.0 °F42.8 °F76 %29.65 in6.2 miWest (260°)18.4 mphScattered Clouds
1:50 PM50.0 °F42.8 °F76 %29.65 in6.2 miWest (270°)23.0 mphPartly Cloudy
2:20 PM50.0 °F42.8 °F76 %29.65 in6.2 miWest (270°)21.9 mphPartly Cloudy
2:50 PM50.0 °F42.8 °F76 %29.68 in6.2 miWest (270°)21.9 mphPartly Cloudy
3:20 PM50.0 °F42.8 °F76 %29.68 in6.2 miWest (260°)16.1 mphPartly Cloudy
3:50 PM48.2 °F42.8 °F82 %29.68 in6.2 miWest (260°)21.9 mphPartly Cloudy
4:20 PM48.2 °F42.8 °F82 %29.68 in6.2 miWest (260°)19.6 mphPartly Cloudy
4:50 PM46.4 °F41.0 °F81 %29.71 in6.2 miWSW (250°)18.4 mphPartly Cloudy
5:20 PM46.4 °F41.0 °F81 %29.71 in6.2 miWSW (250°)13.8 mphPartly Cloudy
5:50 PM46.4 °F42.8 °F87 %29.74 in6.2 miWSW (250°)17.3 mphPartly Cloudy
6:20 PM46.4 °F41.0 °F81 %29.74 in6.2 miWSW (250°)15.0 mphPartly Cloudy
6:50 PM46.4 °F41.0 °F81 %29.74 in6.2 miWSW (250°)16.1 mphPartly Cloudy
7:20 PM46.4 °F41.0 °F81 %29.77 in6.2 miWest (260°)18.4 mphPartly Cloudy
7:50 PM44.6 °F41.0 °F87 %29.77 in6.2 miWest (260°)15.0 mphPartly Cloudy
8:20 PM44.6 °F41.0 °F87 %29.80 in6.2 miWest (260°)11.5 mphPartly Cloudy
8:50 PM44.6 °F41.0 °F87 %29.80 inWest (260°)12.7 mphClear
9:20 PM44.6 °F41.0 °F87 %29.80 inWest (260°)15.0 mphClear
9:50 PM44.6 °F41.0 °F87 %29.83 inWest (260°)12.7 mphClear
10:20 PM42.8 °F41.0 °F93 %29.83 inWest (260°)11.5 mphClear
10:50 PM42.8 °F41.0 °F93 %29.86 inWest (270°)12.7 mphClear
11:20 PM42.8 °F41.0 °F93 %29.86 inWest (260°)13.8 mphClear
11:50 PM42.8 °F41.0 °F93 %29.86 inWSW (250°)13.8 mphClear
Hourly data recorded from EGNT, located miles away from Tynemouth, England







STORIES FROM OUR PARTNERS